QZS-1 (QZSS/PRN 183)

Last updated on Aug. 14, 2020, 5:31 a.m. UTC

1 37158U 10045A   20226.64835052 -.00000185  00000-0  00000+0 0  9993
2 37158  41.6747 142.7916 0762057 270.9110 280.3623  1.00258151 36323
UTC
Height (km)
Latitude
Longitude
Inclination
Orbital Period
UTC large
Height (km)
Speed (km/s)
/
Latitude / Longitude
Inclination (degrees)
Orbital Period (minutes)
Azimuth
Elevation
Range (km)
Doppler Factor
iOS Compass Heading
iOS Angle

Next 30 passes for location: Hong Kong

Rise time Rise Azimuth (degrees) Set time Set Azimuth (degrees) Duration Max altitude (degrees)

No matching passes for this satellites